User: anonymous   Login
Location: Unspecified
(0.0000°N, 0.0000°E)
Time: 03:15:31
(UTC+00:00)
Language:

RS-15 - Orbit

View from above orbital plane
View from above orbital plane
View from above satellite
View from above satellite

Ground track
Ground track

The orbit data is extracted from the following two-line orbital elements,

1 23439U 94085A   19082.89219031 -.00000060 +00000-0 -48655-3 0  9999
2 23439 064.8140 256.4910 0148242 129.8823 339.8517 11.27568291998102
Epoch (UTC): 23 March 2019 21:24:45
Eccentricity: 0.0148242
inclination: 64.8140°
perigee height: 1898 km
apogee height: 2147 km
right ascension of ascending node: 256.4910°
argument of perigee: 129.8823°
revolutions per day: 11.27568291
mean anomaly at epoch: 339.8517°
orbit number at epoch: 99810

The dashed part of the orbit path shows where the satellite is in the earth's shadow,  

DLR